Weather Roundup
Issued by NWS Springfield, MO

Home | Current Version | Previous Version | Text Only | Print | Product List | Glossary On
Versions: 1 2 3 4 5 6 7 8 9 10 11 12 13 14 15 16 17 18 19 20 21 22 23 24 25 26 27 28 29 30 31 32 33 34 35 36 37 38 39 40 41 42 43 44 45 46 47 48 49 50
000
NZUS99 KSGF 211507
HRRSGF

HOURLY WEATHER
NATIONAL WEATHER SERVICE SPRINGFIELD MO
1000 AM CDT SUN SEP 21 2014

......SGF CWA......

CITY           SKY/WX    TMP DP  RH WIND       PRES   REMARKS
SPRINGFIELD    SUNNY     71  52  50 NE16      30.14R
JOPLIN         SUNNY     71  50  47 NE14      30.15R
WEST PLAINS    MOSUNNY   74  62  66 N12G23    30.11R
ROLLA          SUNNY     67  52  58 NW6       30.10R
OSAGE BEACH    SUNNY     70  50  49 N3        30.13R
BRANSON        PTSUNNY   73  68  83 NW10      30.12R

......SURROUNDING SGF CWA......

CITY           SKY/WX    TMP DP  RH WIND       PRES   REMARKS
CHANUTE        SUNNY     72  51  47 NE13G21   30.17R
PARSONS        SUNNY     73  55  53 VRB5      30.18R
EMPORIA        SUNNY     69  55  60 N6        30.20R
GROVE OK       PTSUNNY   73  61  64 NE6       30.14R
ROGERS AR      CLOUDY    71  68  90 CALM      30.14R
SILOAM SPRINGS CLOUDY    72  64  78 N9        30.15R
HARRISON AR    PTSUNNY   74  69  85 NW6       30.12R
NEAR YELLVILLE PTSUNNY   73  66  78 NW3       30.09R

......KANSAS AND MISSOURI......

CITY           SKY/WX    TMP DP  RH WIND       PRES   REMARKS
KANSAS CTY INT SUNNY     67  56  67 NW9       30.18R
DOWNTOWN KC    SUNNY     69  55  60 NW5       30.17R
COLUMBIA       SUNNY     69  53  56 NW12      30.11R
SEDALIA        SUNNY     69  52  54 NW8       30.14R
ST JOSEPH      SUNNY     67  54  63 N9        30.18R
ST LOUIS       SUNNY     72  53  51 NW7       30.05R
SPIRIT OF STL  SUNNY     69  55  60 W8        30.05R
KIRKSVILLE     SUNNY     65  51  60 W13       30.11R
WICHITA        MOSUNNY   73  49  42 NE13      30.21R
TOPEKA         SUNNY     70  60  70 NW7       30.20R
OLATHE         SUNNY     70  51  51 NW8       30.17R

......TENNESSEE......

CITY           SKY/WX    TMP DP  RH WIND       PRES   REMARKS
MEMPHIS        MOSUNNY   81  68  64 W6        30.05R
NASHVILLE      PTSUNNY   80  67  64 W9        29.99S

......ARKANSAS.......

CITY           SKY/WX    TMP DP  RH WIND       PRES   REMARKS
FAYETTEVILLE   CLOUDY    71  69  93 CALM      30.14R
FT SMITH       PTSUNNY   77  70  79 N6        30.10R
LITTLE ROCK    MOSUNNY   84  68  58 NW5       30.06S

......OKLAHOMA.......

CITY           SKY/WX    TMP DP  RH WIND       PRES   REMARKS
TULSA          TSTM      71  71 100 NE8       30.14R VSB 1
PONCA CITY     MOSUNNY   72  54  53 NE16      30.16R
MCALESTER      PTSUNNY   78  70  76 SW5       30.11R
OKLAHOMA CITY  PTSUNNY   81  67  62 NW7       30.13R

......IOWA............

CITY           SKY/WX    TMP DP  RH WIND       PRES   REMARKS
DES MOINES     SUNNY     64  48  56 N21G29    30.11R
QUAD CITIES    SUNNY     63  50  62 NW20G29   29.98R

......ILLINOIS........

CITY           SKY/WX    TMP DP  RH WIND       PRES   REMARKS
QUINCY         SUNNY     65  51  60 NW17G24   30.05R
CHICAGO        CLOUDY    61  50  67 NW16G24   29.85R




USA.gov is the U.S. government's official web portal to all federal, state and local government web resources and services.